Temp
64 62 63 63 63 65 66 67 67 67 67 68 68 67 67 66 66 66 64 63 62 61 60 60 60 59 58 58 58 58 57 56 53 58 59 60 62 62 62 62 63 62 60
66 66 64 63 65 66 66 66 67 67 68 68 68 67 67 68 66 65 65 64 62 60 60 60 60 60 59 59 58 58 57 57 56 57 59 59 61 62 61 61 62 62 61
63 63 64 65 66 66 67 66 67 67 67 68 68 67 67 67 66 66 65 62 62 61 60 60 60 59 58 58 58 58 58 58 57 56 57 59 60 61 60 60 60 59 60
64 64 65 66 67 67 67 66 67 68 67 67 68 69 69 68 67 64 63 62 61 61 60 60 60 60 59 58 59 60 59 58 58 58 58 57 59 60 60 58 56 58 57
65 65 66 66 67 68 67 67 67 68 67 68 68 69 67 65 66 63 62 61 60 60 60 60 59 60 60 59 60 60 59 58 58 58 57 56 57 58 58 57 55 56 56
65 64 65 65 66 68 68 67 66 66 66 68 66 65 63 64 53 55 60 60 60 59 58 58 58 59 58 54 55 56 59 58 58 58 55 57 57 56 57 57 56 56 54
65 65 66 65 65 64 64 65 65 64 65 65 61 62 60 58 49 51 54 62 59 58 57 56 57 59 58 59 53 53 54 53 57 60 57 58 57 57 58 56 57 54 54
64 66 66 66 65 65 65 64 63 63 62 60 58 58 57 54 47 47 51 59 58 58 57 57 57 58 58 58 58 59 59 59 59 60 61 58 56 59 60 60 56 55 56
63 66 67 67 65 66 65 61 60 60 58 57 57 56 55 53 46 47 56 58 57 57 57 57 58 58 50 49 59 58 57 56 51 51 51 49 48 49 55 60 56 55 53
62 67 67 67 67 66 62 61 60 61 59 58 56 57 51 53 45 47 55 58 58 58 58 56 49 55 45 46 58 58 56 55 55 54 53 49 51 51 51 60 58 56 53
66 68 67 67 66 64 61 61 61 60 59 58 56 56 56 55 50 45 49 58 59 58 58 56 54 45 44 44 50 58 56 56 53 56 56 56 55 55 55 56 57 59 55
66 66 65 64 65 64 61 61 62 61 59 56 56 56 56 55 47 45 45 51 53 59 58 56 53 43 42 44 50 43 45 52 57 56 55 55 55 56 55 57 56 57 58
63 63 63 63 62 62 61 60 60 59 59 58 58 57 55 55 52 44 44 45 49 56 56 51 44 41 42 44 43 44 48 58 56 55 55 55 56 57 57 56 55 56 57
62 62 62 61 60 61 62 61 60 59 59 59 58 57 56 54 54 54 53 52 47 51 47 49 48 48 48 48 50 54 59 58 57 56 55 55 56 56 56 56 55 56 55
62 62 61 60 60 56 52 55 60 58 58 60 59 57 56 54 54 52 53 56 56 52 53 55 55 54 54 55 57 57 57 57 57 56 56 55 55 56 54 56 56 56 55
62 62 60 58 57 56 55 51 41 42 44 46 48 54 54 48 42 43 45 43 43 45 55 56 55 56 56 56 56 56 56 54 56 57 56 56 55 55 55 55 56 56 55
64 60 59 57 57 58 57 56 53 46 41 41 43 43 47 44 41 41 41 40 42 48 56 56 56 56 56 56 56 56 55 56 57 57 57 56 56 56 54 55 56 56 55
65 52 61 59 58 60 58 57 56 56 56 53 42 43 41 41 40 40 41 46 54 53 56 56 56 57 57 56 56 56 56 56 57 57 56 57 57 56 55 55 54 55 56
62 62 62 59 58 55 56 55 56 56 55 52 49 44 40 39 40 40 42 56 55 55 56 56 57 57 57 57 57 58 58 57 57 57 57 57 57 56 56 57 56 46 49
64 52 56 59 57 57 56 55 56 55 54 55 55 51 47 50 52 53 55 56 53 54 56 56 57 58 58 58 58 58 57 55 57 57 58 58 58 57 56 56 57 57 55
61 59 49 60 59 58 57 55 57 57 57 56 54 51 42 57 56 56 55 55 57 56 57 57 56 58 58 58 58 58 57 57 58 58 58 58 58 57 56 57 57 57 58
63 61 62 62 61 59 58 56 58 59 58 55 54 47 40 55 57 57 56 58 59 58 58 58 58 59 59 60 59 58 58 55 55 57 58 58 57 57 57 56 57 57 57
65 62 60 60 60 51 57 57 57 57 56 55 55 52 54 56 58 58 56 53 51 51 52 55 54 53 53 53 53 57 58 58 59 59 59 59 59 59 58 57 57 56 55
64 65 61 60 60 59 58 57 55 50 56 56 55 55 56 55 53 51 50 48 47 46 47 47 47 47 48 49 49 49 50 51 53 56 58 60 60 56 59 58 58 58 58
63 62 61 61 59 59 57 56 56 56 57 56 56 53 53 50 49 47 45 45 44 43 44 45 43 44 45 45 44 45 37 35 48 44 54 56 54 54 54 53 53 53 52
57 57 60 60 59 59 58 56 56 56 56 53 50 47 48 46 45 44 45 44 43 42 43 43 43 42 42 42 40 37 37 37 44 40 52 51 50 50 51 49 49 48 47
MSLP
994.25 995.00 995.33 996.02 996.68 997.42 998.09 998.61 998.87 999.46 1000.07 1000.70 1001.39 1002.10 1002.69 1003.42 1003.95 1004.43 1004.94 1005.59 1006.12 1006.62 1007.04 1007.48 1007.78 1008.05 1008.50 1008.74 1009.01 1009.39 1009.74 1010.12 1010.60 1010.64 1010.60 1010.71 1010.79 1010.93 1011.18 1011.11 1011.21 1011.38 1011.71
993.74 994.10 994.90 995.60 996.45 997.14 997.49 998.07 998.58 999.15 999.88 1000.34 1001.11 1001.75 1002.63 1003.13 1003.64 1004.23 1004.85 1005.40 1005.93 1006.50 1006.97 1007.37 1007.61 1007.92 1008.23 1008.50 1008.85 1009.19 1009.49 1009.90 1010.21 1010.46 1010.56 1010.81 1010.78 1010.97 1011.35 1011.47 1011.78 1011.94 1012.14
993.61 993.89 994.69 995.29 996.07 996.47 996.76 997.59 998.33 999.07 999.73 1000.33 1000.72 1001.53 1002.36 1002.85 1003.63 1004.15 1004.61 1005.27 1005.79 1006.27 1006.76 1007.07 1007.39 1007.79 1008.13 1008.34 1008.61 1008.92 1009.29 1009.66 1009.84 1009.97 1010.58 1010.87 1011.00 1011.11 1011.64 1011.97 1012.25 1012.56 1012.54
993.58 993.91 994.27 994.82 995.32 995.48 996.52 997.19 997.81 998.65 999.31 1000.07 1000.54 1001.18 1001.89 1002.54 1003.47 1004.14 1004.65 1005.21 1005.63 1006.10 1006.39 1006.74 1007.17 1007.51 1007.77 1008.05 1008.27 1008.60 1009.01 1009.37 1009.76 1010.03 1010.49 1010.90 1011.11 1011.44 1011.61 1012.24 1012.84 1013.00 1013.13
993.13 993.69 993.85 994.13 994.55 995.45 996.36 996.99 997.68 998.28 999.01 999.72 1000.44 1001.08 1001.72 1002.62 1003.37 1003.99 1004.50 1005.06 1005.61 1006.03 1006.28 1006.61 1006.95 1007.25 1007.50 1007.78 1008.00 1008.40 1008.80 1009.19 1009.64 1010.10 1010.57 1010.88 1011.20 1011.47 1011.91 1012.40 1012.94 1013.23 1013.63
992.72 993.12 993.48 994.02 994.71 995.45 996.16 996.83 997.55 998.41 999.01 999.66 1000.52 1001.16 1001.97 1002.65 1003.13 1003.67 1004.29 1004.97 1005.45 1005.85 1006.27 1006.68 1006.92 1007.14 1007.40 1007.63 1007.79 1008.00 1008.38 1008.85 1009.50 1009.97 1010.41 1010.72 1011.21 1011.53 1012.02 1012.39 1012.99 1013.45 1014.06
993.20 993.32 993.73 994.26 994.87 995.58 996.11 996.87 997.55 998.59 999.20 999.90 1000.81 1001.53 1002.31 1002.85 1003.24 1003.50 1004.14 1004.76 1005.33 1005.82 1006.25 1006.67 1007.02 1007.13 1007.42 1007.71 1007.83 1008.18 1008.42 1008.63 1008.93 1009.47 1009.80 1010.32 1010.91 1011.31 1011.86 1012.65 1013.14 1013.65 1013.90
994.01 993.57 993.86 994.30 994.76 995.33 996.13 997.04 997.83 998.68 999.43 1000.36 1001.13 1001.88 1002.56 1003.26 1003.44 1003.87 1004.31 1004.87 1005.41 1005.80 1006.11 1006.49 1006.82 1007.08 1007.35 1007.63 1007.92 1008.18 1008.52 1008.95 1009.24 1009.50 1009.78 1010.06 1010.57 1011.22 1011.69 1012.20 1013.22 1013.88 1014.26
994.39 993.97 993.87 994.10 994.48 995.27 996.33 997.20 997.97 999.02 999.92 1000.59 1001.41 1002.11 1002.66 1003.61 1003.87 1004.10 1004.54 1005.00 1005.52 1005.98 1006.21 1006.45 1006.67 1006.94 1007.22 1007.42 1007.78 1008.10 1008.63 1009.22 1009.44 1009.52 1009.78 1010.22 1010.76 1011.18 1011.57 1012.36 1013.24 1013.67 1014.45
994.36 993.95 994.01 994.12 994.53 995.63 996.56 997.52 998.40 999.24 1000.11 1000.95 1001.78 1002.38 1003.10 1003.62 1004.19 1004.42 1004.50 1005.05 1005.72 1006.07 1006.39 1006.68 1006.77 1006.86 1007.11 1007.33 1007.67 1008.12 1008.59 1009.07 1009.57 1010.36 1010.84 1011.12 1011.18 1011.55 1011.73 1012.02 1012.67 1013.47 1014.18
993.37 993.76 993.93 994.28 994.77 995.67 996.98 997.91 998.89 999.68 1000.52 1001.46 1002.19 1002.88 1003.37 1003.79 1004.36 1004.52 1004.65 1005.09 1005.51 1005.94 1006.35 1006.72 1006.88 1007.05 1007.21 1007.55 1007.82 1008.08 1008.40 1009.07 1009.74 1010.21 1010.84 1011.31 1011.62 1011.93 1012.17 1012.36 1012.73 1013.10 1013.93
992.11 992.94 993.86 994.72 995.12 996.28 997.10 998.25 999.13 999.93 1000.83 1001.80 1002.51 1003.30 1003.85 1004.21 1004.54 1004.70 1004.89 1004.99 1005.36 1005.72 1006.23 1006.58 1006.89 1007.17 1007.44 1007.82 1008.11 1008.50 1008.93 1009.40 1009.87 1010.36 1010.94 1011.45 1011.79 1012.06 1012.35 1012.57 1012.87 1013.25 1013.50
993.70 993.53 994.22 994.99 995.86 996.80 997.57 998.56 999.46 1000.18 1001.07 1002.04 1002.74 1003.48 1004.09 1004.53 1004.94 1005.08 1005.06 1005.14 1005.42 1005.93 1006.23 1006.58 1006.90 1007.23 1007.78 1008.23 1008.49 1008.95 1009.24 1009.62 1010.11 1010.60 1011.04 1011.46 1011.77 1012.12 1012.53 1012.96 1013.24 1013.34 1013.41
993.68 993.72 994.62 995.57 996.64 997.52 998.18 998.97 999.93 1000.66 1001.37 1002.05 1002.78 1003.52 1004.12 1004.71 1005.06 1005.21 1005.31 1005.56 1005.79 1006.23 1006.59 1006.87 1007.10 1007.50 1007.82 1008.46 1009.02 1009.26 1009.44 1009.72 1010.16 1010.66 1011.16 1011.62 1011.99 1012.35 1012.72 1012.99 1013.37 1013.63 1013.90
993.26 994.25 995.21 996.09 997.23 998.29 999.31 1000.21 1000.40 1000.90 1001.07 1001.70 1002.40 1003.04 1003.81 1004.48 1004.85 1004.88 1005.09 1005.52 1005.84 1006.17 1006.51 1006.86 1007.22 1007.71 1008.34 1008.79 1009.07 1009.36 1009.59 1009.94 1010.39 1010.78 1011.24 1011.73 1012.12 1012.43 1012.84 1013.05 1013.33 1013.67 1013.93
993.50 994.56 995.47 996.75 997.77 998.71 999.62 1000.72 1001.30 1001.53 1001.55 1001.73 1002.04 1002.56 1003.54 1003.78 1004.52 1005.05 1005.43 1005.64 1005.94 1006.17 1006.46 1006.89 1007.24 1007.77 1008.28 1008.70 1009.07 1009.49 1009.83 1010.16 1010.53 1010.89 1011.33 1011.78 1012.21 1012.55 1012.89 1013.18 1013.36 1013.63 1013.94
993.59 994.84 995.92 996.91 997.99 998.83 999.60 1000.37 1001.46 1002.57 1002.48 1002.57 1002.78 1003.01 1003.44 1004.23 1004.79 1005.31 1005.63 1005.88 1006.15 1006.19 1006.46 1006.90 1007.28 1007.78 1008.22 1008.65 1009.03 1009.45 1009.81 1010.25 1010.58 1010.93 1011.30 1011.70 1012.08 1012.48 1012.85 1013.19 1013.41 1013.63 1013.74
993.73 994.59 995.62 996.95 997.89 998.58 999.42 1000.22 1001.05 1001.91 1002.56 1003.35 1003.86 1003.87 1004.10 1004.62 1005.18 1005.59 1005.84 1006.05 1006.40 1006.45 1006.59 1006.99 1007.38 1007.81 1008.25 1008.70 1009.13 1009.51 1009.97 1010.41 1010.75 1011.02 1011.32 1011.57 1011.90 1012.26 1012.70 1012.96 1013.24 1013.38 1013.65
994.26 995.22 996.23 997.14 997.91 998.66 999.54 1000.39 1001.17 1001.74 1002.35 1003.29 1004.16 1004.61 1005.09 1005.26 1005.58 1005.93 1005.96 1005.99 1006.17 1006.48 1006.69 1007.09 1007.45 1007.87 1008.29 1008.66 1009.07 1009.44 1009.83 1010.27 1010.55 1010.88 1011.19 1011.45 1011.71 1012.01 1012.39 1012.68 1012.99 1013.27 1013.43
994.78 995.42 996.23 997.27 998.27 999.06 999.84 1000.63 1001.21 1001.77 1002.51 1003.14 1003.75 1004.53 1005.25 1005.52 1006.12 1006.29 1006.25 1006.23 1006.41 1006.72 1006.93 1007.18 1007.49 1007.85 1008.27 1008.62 1009.02 1009.37 1009.80 1010.28 1010.50 1010.70 1010.95 1011.16 1011.49 1011.84 1012.18 1012.48 1012.72 1012.94 1013.13
995.00 995.88 996.52 997.44 998.27 999.18 999.98 1000.66 1001.23 1001.90 1002.60 1003.13 1003.86 1004.57 1004.89 1005.22 1005.84 1006.26 1006.38 1006.41 1006.46 1006.70 1006.94 1007.24 1007.59 1007.91 1008.11 1008.56 1009.06 1009.37 1009.64 1009.95 1010.19 1010.40 1010.65 1010.96 1011.29 1011.64 1011.91 1012.06 1012.31 1012.56 1012.73
995.24 996.08 996.71 997.46 998.35 999.33 1000.04 1000.74 1001.47 1002.06 1002.81 1003.53 1004.35 1004.90 1005.29 1005.65 1006.04 1006.37 1006.56 1006.55 1006.51 1006.73 1006.99 1007.28 1007.62 1007.91 1008.33 1008.62 1008.98 1009.33 1009.65 1010.04 1010.21 1010.34 1010.54 1010.74 1011.02 1011.32 1011.56 1011.87 1012.07 1012.28 1012.52
995.26 996.14 997.03 997.88 998.51 999.47 1000.24 1001.22 1001.85 1002.50 1003.21 1003.92 1004.52 1005.21 1005.61 1005.94 1006.23 1006.54 1006.77 1007.01 1007.35 1007.53 1007.57 1007.73 1008.14 1008.55 1008.76 1008.98 1009.15 1009.40 1009.66 1009.80 1009.82 1010.04 1010.25 1010.44 1010.61 1010.76 1011.03 1011.33 1011.61 1011.90 1012.11
995.27 996.14 997.14 998.09 998.95 999.78 1000.56 1001.35 1001.99 1002.69 1003.42 1004.07 1004.76 1005.43 1005.86 1006.28 1006.74 1007.22 1007.64 1008.09 1008.39 1008.63 1008.78 1008.99 1009.27 1009.49 1009.53 1009.60 1009.71 1009.76 1009.74 1009.74 1009.71 1009.76 1009.99 1010.04 1010.20 1010.43 1010.49 1010.85 1011.24 1011.53 1011.78
995.64 996.52 997.31 998.01 999.02 999.82 1000.74 1001.46 1002.22 1002.90 1003.66 1004.53 1005.16 1005.81 1006.41 1007.05 1007.62 1008.25 1008.83 1009.15 1009.45 1009.75 1010.10 1010.30 1010.48 1010.58 1010.55 1010.47 1010.54 1010.47 1010.36 1010.09 1009.96 1009.99 1009.90 1010.11 1010.50 1010.75 1010.90 1011.22 1011.55 1011.98 1012.30
996.79 997.20 997.71 998.42 999.27 999.95 1000.76 1001.81 1002.74 1003.49 1004.26 1005.20 1006.09 1006.83 1007.43 1008.11 1008.73 1009.20 1009.73 1010.10 1010.51 1010.94 1011.26 1011.55 1011.70 1011.73 1011.72 1011.71 1011.70 1011.36 1010.98 1010.80 1010.56 1010.41 1010.53 1010.88 1011.24 1011.70 1011.88 1012.26 1012.40 1012.93 1013.16
Wind_Speed
11 7 8 8 8 8 8 8 9 9 10 11 11 9 8 8 8 7 7 7 7 6 4 6 6 5 4 4 3 2 3 3 3 1 1 1 2 5 3 4 4 4 3
9 10 10 8 9 10 10 10 10 11 10 11 11 9 9 10 9 9 8 7 7 7 6 6 6 4 5 4 3 5 4 4 3 5 1 2 2 6 4 6 4 4 3
6 8 8 9 11 11 11 11 10 10 10 10 11 11 10 10 9 7 8 7 6 6 7 6 6 6 5 3 3 4 3 3 2 4 3 1 2 3 5 4 5 5 4
6 7 10 12 13 12 11 11 12 12 12 11 11 11 11 11 9 7 7 6 6 6 6 6 6 6 6 6 4 4 4 4 4 5 3 2 3 3 4 4 4 3 4
10 10 11 10 10 12 11 11 11 12 11 11 11 10 10 9 7 8 7 7 6 6 6 5 5 6 6 5 3 5 6 5 4 5 4 2 2 3 4 2 4 5 4
7 7 8 9 10 12 12 12 13 11 11 11 10 10 9 5 11 11 8 6 7 6 6 4 4 6 6 5 3 9 9 10 6 4 3 7 5 3 4 5 5 4 3
5 8 9 11 10 11 12 12 13 11 10 10 8 8 7 7 10 12 11 6 7 6 6 5 4 3 5 4 2 5 7 7 10 6 8 6 6 4 6 7 3 3 2
4 9 10 12 12 13 14 13 11 10 10 8 7 7 7 4 9 12 10 6 5 5 6 6 5 5 5 6 5 4 6 6 5 4 5 5 5 8 8 7 5 6 5
10 7 11 13 13 13 12 11 9 10 8 6 6 8 9 6 7 11 9 6 5 5 5 5 5 5 6 9 6 7 7 4 5 8 10 10 12 12 11 9 6 8 3
6 9 11 13 15 13 12 11 6 9 8 7 7 6 7 8 6 8 8 5 6 4 4 3 2 4 8 10 8 9 8 6 7 6 5 7 8 10 11 6 9 7 3
7 9 11 11 14 14 11 9 8 9 9 8 8 7 6 5 4 6 9 5 6 5 4 3 2 6 8 8 7 6 6 8 8 8 6 5 5 7 4 5 4 8 5
5 14 13 11 10 10 13 9 11 11 11 8 9 6 4 4 3 5 9 8 8 5 5 3 3 7 7 9 7 11 13 9 6 6 5 4 5 4 3 4 5 5 2
15 12 11 11 10 10 12 10 9 9 9 8 6 6 4 3 2 3 8 10 10 4 3 5 8 8 11 9 13 14 9 6 6 5 5 3 3 4 5 4 4 5 4
10 13 11 11 10 8 8 8 8 8 8 7 6 6 5 4 3 2 4 5 9 6 7 5 5 8 8 9 9 5 5 6 6 5 4 4 4 4 4 2 2 2 2
12 11 10 10 10 8 7 4 6 4 8 10 8 7 8 6 5 6 6 5 5 6 8 4 5 5 6 6 5 5 5 5 6 4 5 4 3 3 2 2 2 2 2
12 10 9 8 8 7 7 6 15 10 8 6 10 8 2 8 13 11 9 10 12 12 3 5 5 6 7 6 6 5 4 5 4 5 4 4 4 3 3 2 2 3 3
13 11 9 9 8 8 7 7 6 6 14 13 7 10 10 11 13 11 10 10 10 6 4 5 6 6 6 6 5 5 4 3 5 4 5 5 4 4 4 3 2 3 3
11 13 11 9 8 8 7 7 6 7 7 4 10 6 10 15 12 12 13 10 5 4 4 5 5 5 6 5 5 3 5 4 4 4 4 4 5 5 4 3 3 3 3
10 8 8 7 6 8 7 6 6 6 5 5 4 7 8 10 10 10 5 4 5 5 5 4 4 5 4 5 5 4 5 5 5 5 5 5 4 4 4 4 5 5 4
9 13 11 9 8 7 7 7 7 6 6 6 6 5 5 5 4 4 1 3 4 3 4 4 4 4 5 5 5 5 4 4 4 4 4 5 5 5 4 4 4 5 4
7 8 10 8 8 7 7 7 8 6 6 5 6 4 6 8 7 5 3 3 3 3 4 5 4 4 4 4 5 4 4 4 4 3 3 4 4 4 4 4 4 4 4
8 9 8 8 9 8 7 8 8 8 7 7 7 4 6 5 5 4 4 3 3 3 3 4 4 4 4 4 4 4 4 4 3 3 3 3 4 4 4 4 4 4 4
9 8 8 7 7 9 8 7 9 8 8 7 7 5 3 4 5 4 6 5 5 5 5 5 5 4 4 4 3 2 3 4 4 4 4 4 4 4 4 5 5 4 4
8 10 10 8 9 9 9 8 7 9 10 9 8 5 3 5 7 8 7 6 6 6 7 7 7 7 4 4 3 3 1 1 1 2 4 5 4 4 4 3 3 3 1
7 8 10 10 10 9 9 8 8 9 10 9 9 6 7 8 8 8 7 7 8 9 10 8 7 9 11 11 9 8 6 3 4 4 4 6 7 7 7 6 7 7 7
7 7 8 8 8 9 9 9 9 9 10 9 8 8 8 9 9 9 8 9 9 10 11 9 12 16 14 12 12 10 11 11 9 10 8 8 8 7 7 9 12 8 7
Wind_Direction
183 191 168 173 167 159 169 174 170 161 165 163 163 151 152 158 154 145 142 149 151 157 156 174 185 165 179 180 155 143 159 141 139 235 128 57 129 114 90 86 70 80 91
212 189 191 161 156 167 165 167 161 168 167 160 156 146 158 158 150 150 149 161 158 169 179 176 190 176 191 181 172 184 170 172 142 164 128 84 100 104 101 96 73 71 91
182 164 158 157 169 174 159 162 160 156 156 155 152 155 156 152 156 156 156 160 169 176 177 180 188 173 190 180 180 184 173 163 177 143 122 101 84 108 88 71 73 64 66
181 175 166 171 176 160 160 159 155 159 151 155 157 156 154 152 157 154 154 164 170 182 183 177 179 189 185 188 188 175 150 141 134 133 120 108 127 80 100 115 85 72 71
170 171 172 158 142 146 152 150 149 153 152 155 149 148 144 152 158 158 167 167 170 171 180 180 186 189 188 174 171 161 146 132 134 133 136 126 100 126 135 113 107 105 54
146 141 135 131 141 155 154 150 144 145 145 146 147 147 143 151 155 155 151 158 157 160 170 173 167 168 162 150 174 161 161 148 148 155 173 162 166 112 125 126 137 140 118
131 139 140 143 144 147 139 142 142 144 143 145 134 133 142 143 168 160 155 156 156 158 158 160 168 176 173 173 131 162 142 132 169 184 165 164 153 140 135 137 134 76 82
324 154 149 147 147 138 139 142 129 139 133 137 129 132 131 117 139 142 138 134 131 147 160 168 170 179 183 164 158 144 147 152 159 165 179 139 121 141 152 140 117 102 73
356 186 162 154 143 134 131 126 124 123 123 122 136 132 123 127 126 137 142 126 127 146 153 161 174 177 166 169 149 142 132 106 70 129 131 134 141 132 130 130 138 133 108
294 217 172 154 143 136 131 125 118 125 118 122 103 105 109 129 129 143 137 125 136 137 124 129 82 174 168 165 153 156 145 147 132 109 95 92 130 139 144 152 149 148 130
199 173 157 152 141 132 125 125 124 119 114 112 111 109 112 129 130 155 151 141 152 145 157 168 156 144 160 169 150 154 144 134 122 120 123 126 127 142 135 132 141 161 157
111 159 146 142 127 128 126 123 127 125 118 115 116 103 105 111 100 169 170 140 148 145 180 172 135 150 158 153 126 117 116 112 115 118 122 129 145 150 132 133 132 130 149
238 140 129 119 118 128 126 126 118 121 129 133 135 134 132 124 103 139 163 151 142 127 154 122 124 128 119 94 121 127 119 119 119 123 127 112 118 116 106 96 110 125 80
153 118 117 116 113 116 125 123 127 133 140 141 143 151 146 149 148 140 128 111 103 94 111 98 108 109 98 116 124 128 124 130 133 123 109 98 104 121 126 122 126 131 103
127 120 113 119 120 100 69 80 140 117 157 159 167 159 161 167 180 155 141 143 137 134 118 115 117 104 121 134 125 118 113 124 130 126 133 127 123 126 118 135 116 124 140
129 132 127 126 125 126 124 96 45 53 71 104 141 148 85 129 138 140 148 124 132 146 107 127 122 132 142 142 136 133 125 127 132 138 132 134 138 140 129 114 122 163 163
140 135 128 126 134 141 138 143 131 49 64 49 99 128 129 143 134 136 134 129 144 130 124 131 135 139 138 135 139 149 137 132 132 139 145 147 145 136 143 153 149 149 174
144 131 135 142 141 145 147 144 137 155 153 117 38 67 114 126 128 132 135 120 116 86 127 135 136 139 142 143 139 125 120 132 143 146 149 153 157 153 161 167 179 170 172
129 135 129 124 121 119 116 115 132 132 126 122 123 66 68 90 118 137 149 132 136 136 138 132 135 139 130 128 130 134 145 156 159 160 167 165 164 159 176 182 186 198 188
134 127 124 125 125 121 118 123 122 121 129 141 135 130 136 117 135 163 123 111 112 124 130 139 141 139 145 142 146 144 141 152 167 168 175 173 173 178 181 187 188 203 214
119 126 124 125 128 131 130 125 129 126 135 125 123 119 132 137 154 154 128 124 140 143 143 141 136 138 139 131 140 154 163 170 176 177 176 170 164 176 187 196 198 206 211
138 138 139 137 134 136 128 123 131 135 124 114 111 85 74 110 124 120 117 99 78 124 133 129 131 138 140 151 157 157 163 175 194 195 193 199 191 197 189 196 208 211 218
140 127 124 125 121 116 112 121 128 124 124 121 125 123 112 129 123 101 87 69 56 49 36 61 84 75 58 64 53 91 182 192 196 184 197 203 208 209 196 210 200 205 205
128 145 130 128 130 127 128 136 129 129 132 131 131 136 130 91 86 87 85 72 66 60 56 54 49 50 51 51 37 35 19 7 2 295 268 227 218 208 205 185 184 216 110
119 125 131 135 135 133 130 127 126 127 128 131 125 98 91 87 87 84 79 75 70 68 62 61 51 54 52 52 46 41 19 119 128 101 72 93 89 69 83 86 84 73 62
74 91 121 121 128 136 128 119 117 118 113 102 95 85 88 86 81 82 81 80 77 71 73 67 64 61 58 52 46 44 46 39 51 61 66 69 74 71 73 74 77 65 68